Location: Unspecified
(41.5000°N, 0.0000°E)
Time: 00:11:03
(UTC+00:00)

A-11 Canister half - Pass Details

Date: 03 July 2019
Orbit: 1526 x 1683 km, 47.3° (Epoch: 19 July)

Event Time Altitude Azimuth Distance (km) Brightness Sun altitude
Exits shadow 00:57:34 40° 197° (SSW) 2,219 9.3 -24.3°
Maximum altitude 01:01:06 58° 142° (SE) 1,804 9.1 -24.2°
Drops below altitude 10° 01:10:17 10° 66° (ENE) 3,734 11.5 -23.7°
Sets 01:13:21 0° 63° (ENE) 4,705 12.2 -23.5°
